Regional Weather Roundup
Issued by NWS

Home | Current Version | Previous Version | Text Only | Print | Product List | Glossary Off
Versions: 1 2 3 4 5 6 7 8 9 10 11 12 13 14 15 16 17 18 19 20 21 22 23 24 25 26 27 28 29 30 31 32 33 34 35 36 37 38 39 40 41 42 43 44 45 46 47 48 49 50

759
ASUS45 KCYS 260210
RWRWY

WYOMING REGIONAL WEATHER ROUNDUP
NATIONAL WEATHER SERVICE CHEYENNE WY
800 PM MDT THU AUG 25 2016

NOTE:  "FAIR" INDICATES FEW OR NO CLOUDS BELOW 12,000 FEET
WITH NO SIGNIFICANT WEATHER AND/OR OBSTRUCTIONS TO VISIBILITY.

WYZ001-260300-
YELLOWSTONE NATIONAL PARK

CITY           SKY/WX    TMP DP  RH WIND       PRES   REMARKS
LK YELLOWSTONE   N/A     53  25  33 VRB3      30.26R
W YELLOWSTONE  NOT AVBL

$$
WYZ002>013-054>058-071-098>099-260300-
NORTHERN WYOMING

CITY           SKY/WX    TMP DP  RH WIND       PRES   REMARKS
JACKSON        FAIR      61  32  33 SW6       30.16R
CODY           FAIR      57  41  54 N5        30.17S
GREYBULL       FAIR      68  36  30 CALM      30.12S
WORLAND        CLOUDY    60  45  57 S10       30.12F
SHERIDAN       FAIR      58  45  62 S5        30.15F
BUFFALO        MOCLDY    59  40  49 SE5       30.20F
GILLETTE       MOCLDY    60  40  47 E6        30.18S
HULETT         FAIR      55  37  50 E7        30.21S
NEWCASTLE      FAIR      61  41  48 S15       30.22R

$$
WYZ014>020-022>026-101>103-260300-
CENTRAL WYOMING

CITY           SKY/WX    TMP DP  RH WIND       PRES   REMARKS
BIG PINEY      FAIR      53  37  54 NE5       30.22F
PINEDALE       MOCLDY    54  32  43 NW6       30.25S
DUBOIS         FAIR      52  39  62 SE6       30.24S
LANDER         CLOUDY    56  47  71 SW5       30.18F
RIVERTON       FAIR      55  47  74 N6        30.19F
CASPER         FAIR      58  45  62 E14       30.19F
DOUGLAS        MOCLDY    58  45  62 E9        30.21F

$$
WYZ021-027>030-104>119-260300-
SOUTHERN WYOMING

CITY           SKY/WX    TMP DP  RH WIND       PRES   REMARKS
EVANSTON       FAIR      65  18  16 NW7       30.18R
FORT BRIDGER   FAIR      63  30  29 SE10      30.21S
ROCK SPRINGS   FAIR      60  33  36 S14       30.18R
DIXON          FAIR      63  31  29 S5        30.22S
RAWLINS        FAIR      56  40  55 E8        30.21F
SARATOGA       FAIR      55  39  54 NW6G20    30.23S
LARAMIE        FAIR      54  39  57 SE12      30.25S
CHEYENNE       CLOUDY    60  42  51 SW12      30.25S
TORRINGTON     FAIR      62  44  51 E9        30.17F
PINE BLUFFS    FAIR      61  41  48 SW3       30.22S

$$




USA.gov is the U.S. government's official web portal to all federal, state and local government web resources and services.